Andover, NJ

10:08 PM EST on December 15, 2019 (GMT -0500)
Andover

Weather History for K12N - September, 2019

Change the Weather History Date:

Sunday, September 1, 2019

  Actual Average (WUND) Record (WUND)
Temperature  
Mean Temperature 65 °F -  
Max Temperature 77 °F - - (-1)
Min Temperature 55 °F - - (-1)
Growing Degree Days 15 (Base 50)    
Moisture  
Dew Point 57 °F    
Average Humidity 74    
Maximum Humidity 97    
Minimum Humidity 46    
Precipitation  
Precipitation 0.00 in - - ()
Sea Level Pressure  
Sea Level Pressure 30.30 in    
Wind  
Wind Speed 2 mph ()    
Max Wind Speed 7 mph    
Max Gust Speed -    
Averages and records for this station are not official NWS values.
T = Trace of Precipitation, MM = Missing Value Source: Averaged Metar Reports

Daily Weather History Graph

Daily Weather History Graph

Search for Another Location

Airport or City:

Astronomy

Sep. 01, 2019 Rise Set
Actual Time 6:25 AM EDT 7:31 PM EDT
Civil Twilight 5:57 AM EDT 8:00 PM EDT
Nautical Twilight 5:23 AM EDT 8:33 PM EDT
Astronomical Twilight 4:48 AM EDT 9:08 PM EDT
Moon 8:53 AM EDT (9/1) 9:16 PM EDT (9/1)
Length of Visible Light 14h 02m
Length of Day
13h 06m
Waxing Crescent, 8% of the Moon is Illuminated
Sep 1
Waxing Crescent
Sep 5
First Quarter
Sep 14
Full
Sep 21
Last Quarter
Sep 28
New

Hourly Weather History & Observations

Time (EDT) Temp. Dew Point Humidity Pressure Visibility Wind Dir Wind Speed Gust Speed Precip Events Conditions
12:54 AM 55.9 °F 54.0 °F 93% 30.32 in - Calm Calm - N/A   Unknown
1:54 AM 55.9 °F 55.0 °F 97% 30.32 in - Calm Calm - N/A   Unknown
2:54 AM 55.9 °F 55.0 °F 97% 30.33 in - Calm Calm - N/A   Unknown
3:54 AM 57.0 °F 55.9 °F 96% 30.32 in - NNW 3.5 mph - N/A   Unknown
4:54 AM 57.0 °F 55.0 °F 93% 30.33 in - NNE 3.5 mph - N/A   Unknown
5:54 AM 57.0 °F 55.0 °F 93% 30.34 in - Calm Calm - N/A   Unknown
6:54 AM 57.9 °F 55.0 °F 90% 30.35 in - NE 3.5 mph - N/A   Unknown
7:54 AM 57.9 °F 54.0 °F 87% 30.36 in - NNE 4.6 mph - N/A   Unknown
8:54 AM 61.0 °F 55.0 °F 81% 30.36 in - Variable 3.5 mph - N/A   Unknown
9:54 AM 68.0 °F 57.0 °F 68% 30.35 in - Variable 3.5 mph - N/A   Unknown
10:54 AM 73.0 °F 59.0 °F 61% 30.34 in - Calm Calm - N/A   Unknown
11:54 AM 73.9 °F 52.0 °F 46% 30.33 in - Variable 5.8 mph - N/A   Unknown
12:54 PM 75.0 °F 55.9 °F 51% 30.33 in - Calm Calm - N/A   Unknown
1:54 PM 75.0 °F 55.9 °F 51% 30.31 in - Variable 6.9 mph - N/A   Unknown
2:54 PM 75.0 °F 57.0 °F 53% 30.29 in - SSE 5.8 mph - N/A   Unknown
3:54 PM 73.9 °F 59.0 °F 59% 30.28 in - Variable 3.5 mph - N/A   Unknown
4:54 PM 75.0 °F 57.9 °F 55% 30.26 in - Calm Calm - N/A   Unknown
5:54 PM 73.0 °F 57.0 °F 57% 30.26 in - SE 3.5 mph - N/A   Unknown
6:54 PM 71.1 °F 57.9 °F 63% 30.25 in - Calm Calm - N/A   Unknown
7:54 PM 69.1 °F 59.0 °F 70% 30.25 in - Variable 3.5 mph - N/A   Unknown
8:54 PM 66.9 °F 60.1 °F 79% 30.25 in - North - - N/A   Unknown
9:54 PM 66.9 °F 61.0 °F 81% 30.23 in - Variable 4.6 mph - N/A   Unknown
10:54 PM 66.9 °F 61.0 °F 81% 30.22 in - North - - N/A   Unknown
11:54 PM 66.9 °F 61.0 °F 81% 30.21 in - Calm Calm - N/A   Unknown